This demonstration page uses our WeatherBlox Daily Observations layout. Learn more.

Left ArrowRight Arrow

39.01783, -85.05884

Hourly Observations for February 18, 2017

Temp ( °F °C ) Dew Point ( °F °C ) Humidity (%) Winds ( mph kmh ) Pressure ( in mb ) Visibility ( mi km ) Precip ( " mm )
12:52 am 00:52 Mostly Clear 52 11.1 32 0 47 47 SW 8 13 29.83 1010 10 16 0.00 0.00
1:52 am 01:52 Clear 50 10 31 -0.6 48 48 SW 7 11 29.83 1010 10 16 0.00 0.00
2:52 am 02:52 Clear 49 9.4 31 -0.6 50 50 SSW 8 13 29.84 1011 10 16 0.00 0.00
3:52 am 03:52 Clear 47 8.3 31 -0.6 54 54 SSW 8 13 29.83 1010 10 16 0.00 0.00
4:52 am 04:52 Clear 46 7.8 31 -0.6 56 56 SSW 9 15 29.83 1010 10 16 0.00 0.00
5:52 am 05:52 Clear 41 5 30 -1.1 65 65 S 10 17 29.82 1010 10 16 0.00 0.00
6:52 am 06:52 Mostly Clear 45 7.2 31 -0.6 58 58 SSW 12 19 29.83 1010 10 16 0.00 0.00
7:52 am 07:52 Partly Cloudy 45 7.2 31 -0.6 58 58 SSW 8 13 29.83 1010 10 16 0.00 0.00
8:52 am 08:52 Mostly Cloudy 51 10.6 34 1.1 52 52 SSW 9 15 29.86 1011 10 16 0.00 0.00
9:52 am 09:52 Mostly Cloudy 55 12.8 35 1.7 47 47 SW 13 20 29.85 1011 10 16 0.00 0.00
10:52 am 10:52 Cloudy 57 13.9 37 2.8 47 47 SSW 14 22 29.84 1011 10 16 0.00 0.00
11:52 am 11:52 Cloudy 57 13.9 38 3.3 49 49 SW 9 15 29.83 1010 10 16 0.00 0.00
12:52 pm 12:52 Cloudy with Light Rain 58 14.4 40 4.4 51 51 SW 10 17 29.83 1010 10 16 0.00 0.03
1:52 pm 13:52 Mostly Cloudy 62 16.7 40 4.4 44 44 SW 13 20 29.81 1010 10 16 0.00 0.03
2:52 pm 14:52 Mostly Cloudy 62 16.7 40 4.4 44 44 SW 9 15 29.81 1009 10 16 0.00 0.00
3:52 pm 15:52 Cloudy 60 15.6 41 5 50 50 SSW 15 24 29.81 1009 10 16 0.00 0.00
4:52 pm 16:52 Cloudy 56 13.3 43 6.1 62 62 S 13 20 29.82 1010 10 16 0.00 0.00
5:52 pm 17:52 Cloudy 53 11.7 44 6.7 72 72 SSW 10 17 29.84 1010 10 16 0.00 0.00
6:52 pm 18:52 Cloudy 51 10.6 45 7.2 80 80 SSW 13 20 29.84 1011 10 16 0.00 0.00
7:52 pm 19:52 Cloudy 50 10 46 7.8 86 86 SSW 13 20 29.85 1011 10 16 0.00 0.00
8:15 pm 20:15 Cloudy 50 10 46 7.8 86 86 SW 12 19 29.88 1012 9 14 0.00 0.00
8:52 pm 20:52 Cloudy 50 10 46 7.8 86 86 SSW 9 15 29.87 1012 9 14 0.00 0.00
9:26 pm 21:26 Cloudy 50 10 46 8 88 88 SW 9 15 29.88 1012 8 13 0.00 0.00
9:52 pm 21:52 Cloudy 51 10.6 47 8.3 86 86 WSW 9 15 29.89 1012 7 11 0.00 0.00
10:25 pm 22:25 Cloudy 51 10.6 47 8.3 86 86 SW 7 11 29.91 1013 8 13 0.00 0.00
10:52 pm 22:52 Cloudy 51 10.6 47 8.3 86 86 SW 9 15 29.90 1012 8 13 0.00 0.00
11:11 pm 23:11 Cloudy 51 10.6 48 8.9 89 89 SW 8 13 29.91 1013 8 13 0.00 0.00
11:52 pm 23:52 Cloudy 51 10.6 48 8.9 89 89 WSW 6 9 29.91 1013 8 13 0.00 0.00

Powered by AerisWeather